sat.trackr.live / text

‹ back to catalog

STARLINK-36479

NORAD 67352 · 2026-003U

PAYLOAD ACTIVE UNKNOWN

§ Identity

Operator
Country
US
Launch date
2026-01-09
Launch site
AFETR
Launch vehicle
Mass (kg)
RCS (m²)

Purposes: comms

External: N2YO · Heavens-Above · Gunter

§ Orbital elements

Epoch: 2026-09-19T06:23:12.019776Z

Period
94.27 min
Inclination
43.0014°
Eccentricity
0.0001620
Mean motion
15.27588756 rev/d
Perigee alt
481.9 km
Apogee alt
484.1 km
Semi-major
6,861.2 km
B*
6.4596e-4
RAAN
213.4369°
Arg perigee
259.5638°
Mean anomaly
100.5031°
Rev number
3,843

§ Raw data

STARLINK-364791 67352U 26003U   26262.26611134  .00017561  00000+0  64596-3 0  99982 67352  43.0014 213.4369 0001620 259.5638 100.5031 15.27588756 38434

JSON: /api/v1/satellites/67352 · /tle

For live sub-satellite position, see the globe view (requires WebGL).

§ Visibility from observer

Set your observer location to see the next 7 days of passes ≥ 10°. The values pass through the URL so the page stays shareable.

No JS? Fill the form by hand. The geolocation button needs JavaScript.